StationID,Date,MaxTemp,MinTemp,Precipitation,Snowfall,SnowDepth
"USC00501180","2007-10-01",46.94,37.94,0.00,0.00,
"USC00501180","2007-10-02",44.96,39.92,81.00,0.00,0.00
"USC00501180","2007-10-03",48.92,26.06,0.00,0.00,0.00
"USC00501180","2007-10-04",51.98,24.98,0.00,0.00,0.00
"USC00501180","2007-10-05",,,,0.00,0.00
"USC00501180","2007-10-06",,,,0.00,0.00
"USC00501180","2007-10-07",,,,0.00,0.00
"USC00501180","2007-10-08",,,,0.00,0.00
"USC00501180","2007-10-09",,,,0.00,0.00
"USC00501180","2007-10-10",,,,0.00,0.00
"USC00501180","2007-10-11",,,,0.00,0.00
"USC00501180","2007-10-12",,,,0.00,0.00
"USC00501180","2007-10-13",,,,0.00,0.00
"USC00501180","2007-10-14",46.04,15.08,,0.00,0.00
"USC00501180","2007-10-15",37.94,28.04,0.00,0.00,0.00
"USC00501180","2007-10-16",39.92,24.08,0.00,0.00,0.00
"USC00501180","2007-10-17",37.04,26.06,0.00,0.00,0.00
"USC00501180","2007-10-18",37.94,21.92,3.00,0.00,0.00
"USC00501180","2007-10-19",37.94,21.92,0.00,0.00,0.00
"USC00501180","2007-10-20",42.98,30.02,0.00,0.00,0.00
"USC00501180","2007-10-21",41.00,19.94,0.00,0.00,0.00
"USC00501180","2007-10-22",33.98,17.96,0.00,0.00,0.00
"USC00501180","2007-10-23",44.06,19.94,0.00,0.00,0.00
"USC00501180","2007-10-24",33.08,24.08,8.00,23.00,25.00
"USC00501180","2007-10-25",35.06,26.06,0.00,0.00,0.00
"USC00501180","2007-10-26",46.94,24.08,0.00,0.00,0.00
"USC00501180","2007-10-27",44.06,19.04,0.00,0.00,0.00
"USC00501180","2007-10-28",41.00,19.04,0.00,0.00,0.00
"USC00501180","2007-10-29",33.08,21.02,0.00,0.00,0.00
"USC00501180","2007-10-30",44.96,23.00,0.00,0.00,0.00
"USC00501180","2007-10-31",46.04,37.94,18.00,0.00,0.00
"USC00501180","2007-11-01",41.00,30.02,46.00,0.00,0.00
"USC00501180","2007-11-02",41.00,32.00,43.00,0.00,0.00
"USC00501180","2007-11-03",35.06,26.06,46.00,0.00,0.00
"USC00501180","2007-11-04",33.98,17.96,0.00,0.00,0.00
"USC00501180","2007-11-05",33.98,26.06,0.00,0.00,0.00
"USC00501180","2007-11-06",39.02,15.98,0.00,0.00,0.00
"USC00501180","2007-11-07",39.02,17.96,0.00,0.00,0.00
"USC00501180","2007-11-08",42.98,26.96,180.00,3.00,0.00
"USC00501180","2007-11-09",42.98,35.06,0.00,0.00,0.00
"USC00501180","2007-11-10",44.06,24.08,0.00,0.00,0.00
"USC00501180","2007-11-11",33.08,26.96,97.00,127.00,152.00
"USC00501180","2007-11-12",30.02,23.00,43.00,76.00,203.00
"USC00501180","2007-11-13",26.96,15.08,10.00,0.00,203.00
"USC00501180","2007-11-14",39.02,23.00,15.00,0.00,178.00
"USC00501180","2007-11-15",33.08,21.92,15.00,25.00,229.00
"USC00501180","2007-11-16",24.08,15.98,0.00,0.00,178.00
"USC00501180","2007-11-17",23.00,10.94,0.00,0.00,178.00
"USC00501180","2007-11-18",19.94,12.02,20.00,13.00,178.00
"USC00501180","2007-11-19",21.92,8.96,25.00,51.00,229.00
"USC00501180","2007-11-20",39.02,3.92,0.00,0.00,152.00
"USC00501180","2007-11-21",41.00,35.96,180.00,0.00,51.00
"USC00501180","2007-11-22",44.96,39.02,0.00,0.00,0.00
"USC00501180","2007-11-23",44.96,41.00,0.00,0.00,0.00
"USC00501180","2007-11-24",42.08,32.00,23.00,0.00,0.00
"USC00501180","2007-11-25",,,0.00,0.00,0.00
"USC00501180","2007-11-26",44.96,28.04,0.00,0.00,0.00
"USC00501180","2007-11-27",44.06,24.08,0.00,0.00,0.00
"USC00501180","2007-11-28",39.02,21.02,0.00,0.00,0.00
"USC00501180","2007-11-29",26.96,15.08,0.00,0.00,0.00
"USC00501180","2007-11-30",23.00,15.98,0.00,0.00,0.00
"USC00501180","2007-12-01",23.00,10.94,0.00,0.00,0.00
"USC00501180","2007-12-02",39.02,8.06,0.00,0.00,0.00
"USC00501180","2007-12-03",41.00,5.00,0.00,0.00,0.00
"USC00501180","2007-12-04",8.96,-0.04,0.00,0.00,0.00
"USC00501180","2007-12-05",17.06,8.96,20.00,25.00,51.00
"USC00501180","2007-12-06",37.04,5.00,0.00,0.00,51.00
"USC00501180","2007-12-07",39.92,28.94,0.00,0.00,25.00
"USC00501180","2007-12-08",42.98,24.08,0.00,0.00,0.00
"USC00501180","2007-12-09",44.06,26.96,0.00,0.00,0.00
"USC00501180","2007-12-10",39.02,26.06,0.00,0.00,0.00
"USC00501180","2007-12-11",44.06,28.04,8.00,0.00,0.00
"USC00501180","2007-12-12",30.92,26.06,56.00,53.00,102.00
"USC00501180","2007-12-13",26.06,5.00,0.00,0.00,102.00
"USC00501180","2007-12-14",15.08,3.02,0.00,0.00,102.00
"USC00501180","2007-12-15",10.94,6.08,5.00,8.00,102.00
"USC00501180","2007-12-16",12.92,-2.02,0.00,0.00,102.00
"USC00501180","2007-12-17",8.06,-0.04,0.00,0.00,102.00
"USC00501180","2007-12-18",6.08,-2.02,0.00,0.00,102.00
"USC00501180","2007-12-19",6.08,-7.06,0.00,0.00,102.00
"USC00501180","2007-12-20",1.04,-16.96,0.00,0.00,102.00
"USC00501180","2007-12-21",10.04,-18.04,0.00,0.00,102.00
"USC00501180","2007-12-22",19.04,6.98,0.00,0.00,102.00
"USC00501180","2007-12-23",35.06,14.00,0.00,0.00,102.00
"USC00501180","2007-12-24",26.96,15.08,10.00,10.00,102.00
"USC00501180","2007-12-25",37.04,12.02,8.00,0.00,127.00
"USC00501180","2007-12-26",17.96,8.96,8.00,38.00,152.00
"USC00501180","2007-12-27",19.04,6.08,0.00,0.00,127.00
"USC00501180","2007-12-28",28.94,8.06,0.00,0.00,127.00
"USC00501180","2007-12-29",21.02,12.02,0.00,5.00,127.00
"USC00501180","2007-12-30",19.94,14.00,33.00,28.00,152.00
"USC00501180","2007-12-31",37.04,15.98,0.00,0.00,127.00
"USC00501180","2008-01-01",37.04,15.08,0.00,0.00,127.00
"USC00501180","2008-01-02",28.94,6.08,0.00,0.00,127.00
"USC00501180","2008-01-03",19.04,8.06,0.00,0.00,127.00
"USC00501180","2008-01-04",15.08,1.04,0.00,0.00,127.00
"USC00501180","2008-01-05",12.92,-0.04,0.00,0.00,127.00
"USC00501180","2008-01-06",10.04,-7.06,0.00,0.00,127.00
"USC00501180","2008-01-07",8.06,-2.02,5.00,25.00,152.00
"USC00501180","2008-01-08",23.00,1.94,0.00,3.00,152.00
"USC00501180","2008-01-09",12.02,-0.04,0.00,0.00,152.00
"USC00501180","2008-01-10",14.00,8.96,30.00,76.00,203.00
"USC00501180","2008-01-11",12.02,-2.92,8.00,25.00,203.00
"USC00501180","2008-01-12",3.02,-11.92,5.00,13.00,203.00
"USC00501180","2008-01-13",-2.02,-13.00,0.00,0.00,178.00
"USC00501180","2008-01-14",-5.08,-22.00,0.00,0.00,178.00
"USC00501180","2008-01-15",21.02,-18.04,3.00,5.00,203.00
"USC00501180","2008-01-16",17.96,8.96,53.00,76.00,254.00
"USC00501180","2008-01-17",24.08,1.04,20.00,15.00,254.00
"USC00501180","2008-01-18",30.02,5.00,0.00,0.00,254.00
"USC00501180","2008-01-19",17.96,1.04,0.00,0.00,229.00
"USC00501180","2008-01-20",44.06,5.00,0.00,0.00,203.00
"USC00501180","2008-01-21",44.06,33.08,5.00,0.00,127.00
"USC00501180","2008-01-22",44.06,39.02,0.00,0.00,102.00
"USC00501180","2008-01-23",42.98,26.96,51.00,76.00,152.00
"USC00501180","2008-01-24",26.96,-4.00,0.00,0.00,152.00
"USC00501180","2008-01-25",10.04,-2.02,76.00,279.00,457.00
"USC00501180","2008-01-26",14.00,-13.00,5.00,13.00,356.00
"USC00501180","2008-01-27",14.00,-22.00,0.00,0.00,356.00
"USC00501180","2008-01-28",10.94,-11.02,0.00,0.00,356.00
"USC00501180","2008-01-29",12.92,6.98,36.00,46.00,305.00
"USC00501180","2008-01-30",15.08,-4.00,0.00,0.00,254.00
"USC00501180","2008-01-31",-2.92,-16.96,0.00,0.00,254.00
"USC00501180","2008-02-01",1.04,-20.92,0.00,0.00,254.00
"USC00501180","2008-02-02",-5.98,-23.08,0.00,0.00,254.00
"USC00501180","2008-02-03",-0.04,-23.98,0.00,0.00,254.00
"USC00501180","2008-02-04",-4.00,-29.02,0.00,0.00,254.00
"USC00501180","2008-02-05",-7.96,-29.92,0.00,0.00,254.00
"USC00501180","2008-02-06",-5.08,-31.00,0.00,0.00,254.00
"USC00501180","2008-02-07",15.08,-20.92,0.00,0.00,254.00
"USC00501180","2008-02-08",14.00,-18.94,0.00,0.00,254.00
"USC00501180","2008-02-09",1.94,-23.98,0.00,0.00,254.00
"USC00501180","2008-02-10",3.02,-23.08,0.00,0.00,254.00
"USC00501180","2008-02-11",3.02,-23.98,8.00,13.00,254.00
"USC00501180","2008-02-12",17.06,3.02,10.00,25.00,279.00
"USC00501180","2008-02-13",21.02,5.00,23.00,38.00,279.00
"USC00501180","2008-02-14",39.02,12.92,0.00,0.00,279.00
"USC00501180","2008-02-15",39.02,12.92,38.00,102.00,356.00
"USC00501180","2008-02-16",17.06,-7.06,0.00,0.00,305.00
"USC00501180","2008-02-17",26.06,3.02,76.00,102.00,406.00
"USC00501180","2008-02-18",41.00,19.04,71.00,0.00,330.00
"USC00501180","2008-02-19",42.98,33.08,0.00,0.00,254.00
"USC00501180","2008-02-20",41.00,35.96,104.00,0.00,178.00
"USC00501180","2008-02-21",42.08,35.96,0.00,0.00,152.00
"USC00501180","2008-02-22",42.08,35.06,0.00,0.00,152.00
"USC00501180","2008-02-23",42.08,19.04,0.00,0.00,152.00
"USC00501180","2008-02-24",35.96,10.94,0.00,0.00,152.00
"USC00501180","2008-02-25",32.00,10.04,0.00,0.00,152.00
"USC00501180","2008-02-26",30.92,10.04,0.00,0.00,152.00
"USC00501180","2008-02-27",28.94,10.94,0.00,0.00,152.00
"USC00501180","2008-02-28",30.92,17.96,0.00,0.00,152.00
"USC00501180","2008-02-29",33.98,15.98,0.00,0.00,152.00
"USC00501180","2008-03-01",28.94,15.98,0.00,0.00,152.00
"USC00501180","2008-03-02",24.08,17.06,0.00,0.00,152.00
"USC00501180","2008-03-03",35.96,14.00,0.00,0.00,152.00
"USC00501180","2008-03-04",42.08,14.00,0.00,0.00,152.00
"USC00501180","2008-03-05",42.98,39.02,0.00,0.00,102.00
"USC00501180","2008-03-06",44.06,37.04,0.00,0.00,0.00
"USC00501180","2008-03-07",46.04,33.98,61.00,0.00,0.00
"USC00501180","2008-03-08",39.02,33.98,81.00,0.00,0.00
"USC00501180","2008-03-09",42.08,32.00,0.00,0.00,0.00
"USC00501180","2008-03-10",46.94,33.98,0.00,0.00,0.00
"USC00501180","2008-03-11",44.06,24.98,0.00,0.00,0.00
"USC00501180","2008-03-12",35.06,26.06,0.00,0.00,0.00
"USC00501180","2008-03-13",35.06,24.08,0.00,0.00,0.00
"USC00501180","2008-03-14",35.06,14.00,0.00,0.00,0.00
"USC00501180","2008-03-15",35.06,14.00,0.00,0.00,0.00
"USC00501180","2008-03-16",39.02,23.00,0.00,0.00,0.00
"USC00501180","2008-03-17",37.94,19.94,0.00,0.00,0.00
"USC00501180","2008-03-18",39.02,14.00,0.00,0.00,0.00
"USC00501180","2008-03-19",32.00,12.92,13.00,25.00,25.00
"USC00501180","2008-03-20",39.02,15.98,0.00,0.00,0.00
"USC00501180","2008-03-21",39.02,21.92,0.00,0.00,0.00
"USC00501180","2008-03-22",46.94,19.04,0.00,0.00,0.00
"USC00501180","2008-03-23",48.92,21.02,0.00,0.00,0.00
"USC00501180","2008-03-24",37.04,24.08,0.00,0.00,0.00
"USC00501180","2008-03-25",44.96,19.94,0.00,0.00,0.00
"USC00501180","2008-03-26",44.96,15.08,0.00,0.00,0.00
"USC00501180","2008-03-27",41.00,12.92,0.00,0.00,0.00
"USC00501180","2008-03-28",41.00,12.92,0.00,0.00,0.00
"USC00501180","2008-03-29",37.94,12.92,0.00,0.00,0.00
"USC00501180","2008-03-30",41.00,24.08,0.00,0.00,0.00
"USC00501180","2008-03-31",42.08,33.98,0.00,0.00,0.00
"USC00501180","2008-04-01",44.96,37.04,0.00,0.00,0.00
"USC00501180","2008-04-02",46.94,32.00,0.00,0.00,0.00
"USC00501180","2008-04-03",53.06,30.92,0.00,0.00,0.00
"USC00501180","2008-04-04",48.02,30.92,0.00,0.00,0.00
"USC00501180","2008-04-05",48.92,28.94,18.00,0.00,0.00
"USC00501180","2008-04-06",30.92,21.92,5.00,25.00,25.00
"USC00501180","2008-04-07",30.02,19.94,0.00,0.00,0.00
"USC00501180","2008-04-08",37.04,19.04,0.00,0.00,0.00
"USC00501180","2008-04-09",37.94,17.96,0.00,0.00,0.00
"USC00501180","2008-04-10",28.94,14.00,41.00,51.00,51.00
"USC00501180","2008-04-11",,,0.00,0.00,
"USC00501180","2008-04-12",35.96,12.02,0.00,0.00,0.00
"USC00501180","2008-04-13",37.04,17.06,0.00,0.00,0.00
"USC00501180","2008-04-14",33.98,24.98,0.00,0.00,0.00
"USC00501180","2008-04-15",44.96,28.94,0.00,0.00,0.00
"USC00501180","2008-04-16",37.94,21.02,38.00,0.00,0.00
"USC00501180","2008-04-17",35.96,19.04,0.00,0.00,0.00
"USC00501180","2008-04-18",41.00,19.94,0.00,0.00,0.00
"USC00501180","2008-04-19",,,0.00,0.00,0.00
"USC00501180","2008-04-20",,,0.00,0.00,0.00
"USC00501180","2008-04-21",,,0.00,0.00,0.00
"USC00501180","2008-04-22",,,0.00,0.00,0.00
"USC00501180","2008-04-23",,,0.00,0.00,0.00
"USC00501180","2008-04-24",,,0.00,0.00,0.00
"USC00501180","2008-04-25",,,0.00,0.00,0.00
"USC00501180","2008-04-26",,,0.00,0.00,0.00
"USC00501180","2008-04-27",,,0.00,0.00,0.00
"USC00501180","2008-04-28",,,0.00,0.00,0.00
"USC00501180","2008-04-29",,,0.00,0.00,0.00
"USC00501180","2008-04-30",,,0.00,0.00,0.00
"USC00501180","2008-05-01",,,,0.00,0.00
"USC00501180","2008-05-02",,,,0.00,0.00
"USC00501180","2008-05-03",,,,0.00,0.00
"USC00501180","2008-05-04",60.98,21.02,,0.00,0.00
"USC00501180","2008-05-05",53.96,35.06,0.00,0.00,0.00
"USC00501180","2008-05-06",57.92,37.94,0.00,0.00,0.00
"USC00501180","2008-05-07",55.04,35.06,0.00,0.00,0.00
"USC00501180","2008-05-08",57.02,37.04,0.00,0.00,0.00
"USC00501180","2008-05-09",57.02,42.08,0.00,0.00,0.00
"USC00501180","2008-05-10",59.00,28.94,0.00,0.00,0.00
"USC00501180","2008-05-11",64.04,35.96,0.00,0.00,0.00
"USC00501180","2008-05-12",60.08,42.08,0.00,0.00,0.00
"USC00501180","2008-05-13",55.04,39.92,0.00,0.00,0.00
"USC00501180","2008-05-14",57.92,37.04,0.00,0.00,0.00
"USC00501180","2008-05-15",57.02,39.92,0.00,0.00,0.00
"USC00501180","2008-05-16",48.92,39.92,0.00,0.00,0.00
"USC00501180","2008-05-17",57.02,35.06,0.00,0.00,0.00
"USC00501180","2008-05-18",59.00,28.94,0.00,0.00,0.00
"USC00501180","2008-05-19",59.00,39.92,0.00,0.00,0.00
"USC00501180","2008-05-20",60.08,32.00,0.00,0.00,0.00
"USC00501180","2008-05-21",68.00,33.08,0.00,0.00,0.00
"USC00501180","2008-05-22",,44.06,5.00,,0.00
"USC00501180","2008-05-23",62.06,48.02,0.00,0.00,0.00
"USC00501180","2008-05-24",62.96,37.94,8.00,0.00,0.00
"USC00501180","2008-05-25",48.02,39.92,114.00,0.00,0.00
"USC00501180","2008-05-26",55.94,35.96,0.00,0.00,0.00
"USC00501180","2008-05-27",60.08,35.06,0.00,0.00,0.00
"USC00501180","2008-05-28",64.94,33.98,0.00,0.00,0.00
"USC00501180","2008-05-29",66.02,33.08,0.00,0.00,0.00
"USC00501180","2008-05-30",64.94,35.96,0.00,0.00,0.00
"USC00501180","2008-05-31",62.06,44.96,0.00,0.00,0.00
"USC00501180","2008-07-01",62.96,41.00,0.00,0.00,
"USC00501180","2008-07-02",69.98,37.04,0.00,0.00,0.00
"USC00501180","2008-07-03",75.02,44.96,0.00,0.00,0.00
"USC00501180","2008-07-04",69.98,48.92,0.00,0.00,0.00
"USC00501180","2008-07-05",75.02,51.98,8.00,0.00,0.00
"USC00501180","2008-07-06",71.06,51.98,23.00,0.00,0.00
"USC00501180","2008-07-07",62.96,44.96,10.00,0.00,0.00
"USC00501180","2008-07-08",,,,0.00,0.00
"USC00501180","2008-07-09",53.06,46.04,,0.00,0.00
"USC00501180","2008-07-10",60.08,46.94,0.00,0.00,0.00
"USC00501180","2008-07-11",62.96,48.92,0.00,0.00,0.00
"USC00501180","2008-07-12",59.00,48.92,13.00,0.00,0.00
"USC00501180","2008-07-13",64.94,48.02,5.00,0.00,0.00
"USC00501180","2008-07-14",59.00,50.00,5.00,0.00,0.00
"USC00501180","2008-07-15",66.92,50.00,0.00,0.00,0.00
"USC00501180","2008-07-16",64.94,48.92,0.00,0.00,0.00
"USC00501180","2008-07-17",62.96,51.08,30.00,0.00,0.00
"USC00501180","2008-07-18",55.94,46.94,66.00,0.00,0.00
"USC00501180","2008-07-19",57.02,46.94,25.00,0.00,0.00
"USC00501180","2008-07-20",64.94,48.02,10.00,0.00,0.00
"USC00501180","2008-07-21",64.94,46.04,41.00,0.00,0.00
"USC00501180","2008-07-22",59.00,46.04,8.00,0.00,0.00
"USC00501180","2008-07-23",62.06,44.96,53.00,0.00,0.00
"USC00501180","2008-07-24",53.06,44.96,36.00,0.00,0.00
"USC00501180","2008-07-25",62.06,44.06,0.00,0.00,0.00
"USC00501180","2008-07-26",69.08,46.04,43.00,0.00,0.00
"USC00501180","2008-07-27",55.94,46.04,79.00,0.00,0.00
"USC00501180","2008-07-28",60.08,46.94,5.00,0.00,0.00
"USC00501180","2008-07-29",60.08,44.96,117.00,0.00,0.00
"USC00501180","2008-07-30",71.06,44.96,0.00,0.00,0.00
"USC00501180","2008-07-31",57.02,51.08,0.00,0.00,0.00
"USC00501180","2008-08-01",69.08,51.08,0.00,0.00,0.00
"USC00501180","2008-08-02",69.98,51.08,0.00,0.00,0.00
"USC00501180","2008-08-03",60.98,51.08,20.00,0.00,0.00
"USC00501180","2008-08-04",64.04,48.02,0.00,0.00,0.00
"USC00501180","2008-08-05",55.94,48.02,0.00,0.00,0.00
"USC00501180","2008-08-06",60.08,42.98,0.00,0.00,0.00
"USC00501180","2008-08-07",66.92,39.92,0.00,0.00,0.00
"USC00501180","2008-08-08",64.04,37.94,18.00,0.00,0.00
"USC00501180","2008-08-09",62.06,41.00,20.00,0.00,0.00
"USC00501180","2008-08-10",51.98,42.98,94.00,0.00,0.00
"USC00501180","2008-08-11",66.02,46.04,8.00,0.00,0.00
"USC00501180","2008-08-12",68.00,44.06,0.00,0.00,0.00
"USC00501180","2008-08-13",66.02,46.94,0.00,0.00,0.00
"USC00501180","2008-08-14",66.02,46.94,0.00,0.00,0.00
"USC00501180","2008-08-15",64.04,48.92,0.00,0.00,0.00
"USC00501180","2008-08-16",68.00,48.92,5.00,0.00,0.00
"USC00501180","2008-08-17",64.94,48.92,0.00,0.00,0.00
"USC00501180","2008-08-18",60.98,41.00,0.00,0.00,0.00
"USC00501180","2008-08-19",62.96,44.06,0.00,0.00,0.00
"USC00501180","2008-08-20",66.02,44.96,0.00,0.00,0.00
"USC00501180","2008-08-21",64.94,46.04,0.00,0.00,0.00
"USC00501180","2008-08-22",66.92,46.04,46.00,0.00,0.00
"USC00501180","2008-08-23",62.96,46.94,5.00,0.00,0.00
"USC00501180","2008-08-24",60.08,39.02,0.00,0.00,0.00
"USC00501180","2008-08-25",60.08,42.98,5.00,0.00,0.00
"USC00501180","2008-08-26",64.04,48.02,0.00,0.00,0.00
"USC00501180","2008-08-27",60.08,46.94,13.00,0.00,0.00
"USC00501180","2008-08-28",59.00,46.04,18.00,0.00,0.00
"USC00501180","2008-08-29",62.96,46.04,18.00,0.00,0.00
"USC00501180","2008-08-30",64.04,44.96,0.00,0.00,0.00
"USC00501180","2008-08-31",66.92,35.96,0.00,0.00,0.00
"USC00501180","2008-09-01",55.94,46.94,0.00,0.00,0.00
"USC00501180","2008-09-02",62.96,50.00,0.00,0.00,0.00
"USC00501180","2008-09-03",64.04,48.92,0.00,0.00,0.00
"USC00501180","2008-09-04",64.04,44.96,0.00,0.00,0.00
"USC00501180","2008-09-05",57.92,39.92,0.00,0.00,0.00
"USC00501180","2008-09-06",60.08,39.02,5.00,0.00,0.00
"USC00501180","2008-09-07",62.06,50.00,18.00,0.00,0.00
"USC00501180","2008-09-08",60.08,48.02,5.00,0.00,0.00
"USC00501180","2008-09-09",60.98,46.94,20.00,0.00,0.00
"USC00501180","2008-09-10",60.08,46.94,25.00,0.00,0.00
"USC00501180","2008-09-11",53.96,42.08,13.00,0.00,0.00
"USC00501180","2008-09-12",55.04,41.00,8.00,0.00,0.00
"USC00501180","2008-09-13",60.08,51.98,0.00,0.00,0.00
"USC00501180","2008-09-14",59.00,46.04,5.00,0.00,0.00
"USC00501180","2008-09-15",57.02,46.94,0.00,0.00,0.00
"USC00501180","2008-09-16",60.98,44.06,8.00,0.00,0.00
"USC00501180","2008-09-17",51.08,42.98,142.00,0.00,0.00
"USC00501180","2008-09-18",,,,0.00,0.00
"USC00501180","2008-09-19",57.02,44.06,,0.00,0.00
"USC00501180","2008-09-20",51.98,32.00,112.00,0.00,0.00
"USC00501180","2008-09-21",51.08,39.92,94.00,0.00,0.00
"USC00501180","2008-09-22",50.00,39.02,23.00,0.00,0.00
"USC00501180","2008-09-23",51.08,30.92,8.00,0.00,0.00
"USC00501180","2008-09-24",46.94,35.06,15.00,0.00,0.00
"USC00501180","2008-09-25",51.08,37.94,0.00,0.00,0.00
"USC00501180","2008-09-26",51.08,32.00,0.00,0.00,0.00
"USC00501180","2008-09-27",53.96,28.94,0.00,0.00,0.00
"USC00501180","2008-09-28",51.98,30.02,0.00,0.00,0.00
"USC00501180","2008-09-29",50.00,21.92,0.00,0.00,0.00
"USC00501180","2008-09-30",46.94,23.00,0.00,0.00,0.00
"USC00501180","2008-10-01",48.92,26.06,0.00,0.00,0.00
"USC00501180","2008-10-02",51.98,21.92,0.00,0.00,0.00
"USC00501180","2008-10-03",42.98,19.94,0.00,0.00,0.00
"USC00501180","2008-10-04",42.98,23.00,15.00,0.00,0.00
"USC00501180","2008-10-05",37.94,24.98,25.00,0.00,0.00
"USC00501180","2008-10-06",39.02,28.04,13.00,0.00,0.00
"USC00501180","2008-10-07",37.94,26.96,13.00,13.00,0.00
"USC00501180","2008-10-08",39.92,30.92,15.00,0.00,0.00
"USC00501180","2008-10-09",35.06,23.00,0.00,0.00,0.00
"USC00501180","2008-10-10",42.98,19.94,20.00,0.00,0.00
"USC00501180","2008-10-11",48.92,39.02,0.00,0.00,0.00
"USC00501180","2008-10-12",50.00,32.00,51.00,0.00,0.00
"USC00501180","2008-10-13",33.98,24.98,25.00,25.00,25.00
"USC00501180","2008-10-14",33.98,23.00,3.00,8.00,25.00
"USC00501180","2008-10-15",35.96,26.96,13.00,13.00,25.00
"USC00501180","2008-10-16",33.08,28.94,0.00,0.00,0.00
"USC00501180","2008-10-17",30.02,24.08,0.00,0.00,0.00
"USC00501180","2008-10-18",33.98,15.98,0.00,0.00,0.00
"USC00501180","2008-10-19",37.04,14.00,0.00,0.00,0.00
"USC00501180","2008-10-20",37.94,23.00,0.00,0.00,0.00
"USC00501180","2008-10-21",39.92,19.94,48.00,76.00,76.00
"USC00501180","2008-10-22",33.08,28.04,10.00,0.00,25.00
"USC00501180","2008-10-23",28.04,17.06,18.00,25.00,51.00
"USC00501180","2008-10-24",24.08,19.04,13.00,25.00,76.00
"USC00501180","2008-10-25",23.00,14.00,0.00,0.00,76.00
"USC00501180","2008-10-26",28.94,10.04,0.00,0.00,76.00
"USC00501180","2008-10-27",24.98,6.98,0.00,0.00,76.00
"USC00501180","2008-10-28",24.08,1.94,0.00,0.00,76.00
"USC00501180","2008-10-29",21.02,-0.94,0.00,0.00,76.00
"USC00501180","2008-10-30",21.02,-2.02,0.00,0.00,76.00
"USC00501180","2008-10-31",24.08,1.04,0.00,0.00,76.00
"USC00501180","2008-11-01",21.02,1.04,0.00,0.00,76.00
"USC00501180","2008-11-02",19.04,-5.08,0.00,0.00,76.00
"USC00501180","2008-11-03",17.06,-2.02,0.00,0.00,76.00
"USC00501180","2008-11-04",21.02,8.06,0.00,0.00,76.00
"USC00501180","2008-11-05",21.02,3.92,0.00,0.00,76.00
"USC00501180","2008-11-06",17.96,3.02,0.00,0.00,76.00
"USC00501180","2008-11-07",21.02,3.92,0.00,0.00,76.00
"USC00501180","2008-11-08",26.06,5.00,0.00,0.00,76.00
"USC00501180","2008-11-09",19.94,3.02,0.00,0.00,76.00
"USC00501180","2008-11-10",37.94,19.94,0.00,0.00,76.00
"USC00501180","2008-11-11",39.02,28.04,13.00,0.00,51.00
"USC00501180","2008-11-12",33.08,21.92,89.00,165.00,229.00
"USC00501180","2008-11-13",30.92,19.94,13.00,13.00,152.00
"USC00501180","2008-11-14",32.00,19.94,0.00,0.00,152.00
"USC00501180","2008-11-15",26.06,17.06,8.00,20.00,178.00
"USC00501180","2008-11-16",33.08,8.06,0.00,0.00,152.00
"USC00501180","2008-11-17",28.04,3.02,0.00,0.00,127.00
"USC00501180","2008-11-18",12.02,-0.94,0.00,0.00,127.00
"USC00501180","2008-11-19",1.94,-11.92,0.00,0.00,127.00
"USC00501180","2008-11-20",12.02,-9.94,8.00,0.00,127.00
"USC00501180","2008-11-21",14.00,-0.94,0.00,0.00,127.00
"USC00501180","2008-11-22",10.94,8.06,13.00,51.00,178.00
"USC00501180","2008-11-23",15.08,6.98,30.00,25.00,178.00
"USC00501180","2008-11-24",37.04,10.04,0.00,0.00,178.00
"USC00501180","2008-11-25",37.04,24.08,0.00,0.00,152.00
"USC00501180","2008-11-26",33.08,19.04,25.00,51.00,229.00
"USC00501180","2008-11-27",21.92,12.92,30.00,25.00,254.00
"USC00501180","2008-11-28",33.08,15.08,15.00,0.00,203.00
"USC00501180","2008-11-29",35.96,21.92,0.00,0.00,203.00
"USC00501180","2008-11-30",33.08,21.02,102.00,76.00,254.00
"USC00501180","2008-12-01",21.92,-0.94,10.00,25.00,279.00
"USC00501180","2008-12-02",1.04,-14.98,0.00,0.00,279.00
"USC00501180","2008-12-03",12.92,-5.98,0.00,0.00,254.00
"USC00501180","2008-12-04",39.02,10.04,0.00,0.00,254.00
"USC00501180","2008-12-05",28.04,17.06,0.00,0.00,254.00
"USC00501180","2008-12-06",28.94,24.98,0.00,0.00,254.00
"USC00501180","2008-12-07",30.92,24.08,28.00,0.00,229.00
"USC00501180","2008-12-08",32.00,19.94,25.00,0.00,229.00
"USC00501180","2008-12-09",33.08,21.02,5.00,0.00,229.00
"USC00501180","2008-12-10",24.08,19.04,36.00,51.00,305.00
"USC00501180","2008-12-11",30.02,21.92,46.00,76.00,305.00
"USC00501180","2008-12-12",24.98,-13.00,0.00,0.00,356.00
"USC00501180","2008-12-13",1.04,-16.06,0.00,0.00,356.00
"USC00501180","2008-12-14",-2.02,-16.06,0.00,0.00,356.00
"USC00501180","2008-12-15",10.04,-9.94,0.00,0.00,356.00
"USC00501180","2008-12-16",21.92,-9.94,13.00,25.00,330.00
"USC00501180","2008-12-17",19.04,-0.04,0.00,0.00,330.00
"USC00501180","2008-12-18",10.94,-9.04,0.00,0.00,330.00
"USC00501180","2008-12-19",19.94,10.94,0.00,0.00,330.00
"USC00501180","2008-12-20",19.04,6.98,0.00,0.00,330.00
"USC00501180","2008-12-21",10.04,-4.00,0.00,0.00,
"USC00501180","2008-12-22",1.04,-9.04,0.00,0.00,
"USC00501180","2008-12-23",10.94,-9.04,0.00,0.00,
"USC00501180","2008-12-24",19.04,-2.02,64.00,76.00,381.00
"USC00501180","2008-12-25",14.00,-7.96,8.00,25.00,381.00
"USC00501180","2008-12-26",21.02,10.94,25.00,102.00,483.00
"USC00501180","2008-12-27",12.92,3.02,0.00,0.00,483.00
"USC00501180","2008-12-28",6.98,-14.98,0.00,0.00,483.00
"USC00501180","2008-12-29",-0.94,-22.00,0.00,0.00,483.00
"USC00501180","2008-12-30",-5.98,-23.98,0.00,0.00,483.00
"USC00501180","2008-12-31",-14.98,-31.00,0.00,0.00,483.00
"USC00501180","2009-01-01",-22.00,-34.06,0.00,0.00,483.00
"USC00501180","2009-01-02",-13.00,-32.98,0.00,0.00,483.00
"USC00501180","2009-01-03",-16.96,-34.96,0.00,0.00,483.00
"USC00501180","2009-01-04",-18.04,-36.04,0.00,0.00,457.00
"USC00501180","2009-01-05",-9.94,-36.04,0.00,0.00,457.00